Погода в Дарганате

Погода в Дарганате : погода сейчас, прогноз погоды и архив. Всё, что Вы хотите узнать о погоде в Дарганате!

Хотите узнать прогноз погоды в Дарганате? Тогда Вам сюда: Погода в Дарганате

Поиск расширенной информации на нашем сайте:

Другие новости

Новости СМИ2

Главная страница сайта

Новости сайта

03.07.2017

Напоминаем, что на нашем специализированном сайте Метеоцентр.Азия вы можете получить высокодетализированные автоматические прогнозы погоды по пунктам России, СНГ и мира в авиационном формате (включающие направление и скорость ветра, видимость, явления погоды, количество и форму облачности, нижнюю и верхнюю границу облачности).


Погода в Дарганате - сегодня

Время (UTC), дата Ветер
(°,м/с) 
Видим.   Явления Облачность Т
(°С)
Тd
(°С)
f(%) Тe
(°С)
Pmin
(гПа)
dP
(гПа)
Po
(мм)
O2
(г/м3)
Тmin Tmax R s Состояние
почвы
21 21.11.17 110 (В) 20000 м    ясно 
+5.2 -4.5 50 +4  1014.7  -1.3  748  296           
00 22.11.17 100 (В) 20000 м    ясно 
+2.7 -3.9 62 +1  1013.6  -1.2  747  298           
03 22.11.17 110 (В) 20000 м    3/0 средняя 
[Ac cast]
+2.2 -5.3 58 1013.5  -0.3  747  299           
06 22.11.17 130 (ЮВ) 20000 м    4/0 средняя 
[Ac cast]
+12 -4.1 32 +10  1012.2  -0.6  746  288  +1.7         
09 22.11.17 130 (ЮВ) 20000 м    8/0 средняя, верхняя 
[Ac cast|Ci ing]
+18.4 -2.7 24 +18  1008.8  -2.9  744  281           
12 22.11.17 120 (ЮВ) 20000 м    9/0 средняя 
[Ac As]
+17.4 -2.7 25 +17  1008  -0.9  743  282           
15 22.11.17 120 (ЮВ) 20000 м    9/0 средняя 
[Ac As]
+14.9 -3.6 28 +14  1008  -0.1  743  284    +19.6       
18 22.11.17 130 (ЮВ) 20000 м    9/0 средняя 
[Ac As]
+12.3 -4.4 31 +12  1008.4  0.1  743  287    +19.6       
21 22.11.17 120 (ЮВ) 20000 м    9/0 средняя 
[Ac As]
+10 -1.7 44 +10  1008.2  -0.3  743  289           
00 23.11.17 120 (ЮВ) 20000 м    4/0 средняя 
[Ac cast]
+9.8 -3 40 +9  1008.2  743  289           
03 23.11.17 110 (В) 20000 м    8/0 средняя 
[Ac As]
+7.8 -3.3 45 +8  1009.2  0.9  744  292           
06 23.11.17 150 (ЮВ) 20000 м    5/0 средняя 
[Ac cast]
+13.4 -3.8 30 +14  1009.7  0.8  745  286  +7.1         
09 23.11.17 110 (В) 20000 м    5/0 верхняя 
[Ci ing]
+20.6 -1.2 23 +21  1007.9  -1.3  744  279           
12 23.11.17 060 (СВ) 20000 м    8/0 средняя, верхняя 
[Ac cast|Ci ing]
+18.6 +3 35 +20  1007.9  -0.1  743  280           
15 23.11.17 090 (В) 20000 м    3/0 средняя 
[Ac cast]
+10.4 -0.2 48 +12  1009.5  1.1  744  289    +21.3       
18 23.11.17 320 (СЗ) 20000 м    3/0 средняя 
[Ac cast]
+11 -0.7 44 +11  1010.5  745  289    +21.3       
21 23.11.17 290 (З) 20000 м    ясно 
+8.1 +1.7 64 +8  1012  1.2  746  292           
00 24.11.17 270 (З) 20000 м    6/0 средняя 
[Ac As]
+8 +2.5 68 +7  1014  747  292           
03 24.11.17 330 (СЗ) 10 км  слаб. ливневой дождь  8/8 600 м кучево-дожд. 
[Cb cap]
+7.2 +5.9 91 +8  1015.4  1.3  748  293      0.7     
06 24.11.17 290 (З) 20000 м  {ливн. осадки}  8/8 600 м кучево-дожд. 
[Cb cap]
+7.4 +5.1 85 +7  1017.8  2.4  750  293  +6.6    0.7     
09 24.11.17 260 (З) 20000 м    8/0 средняя 
[Sc|Ac und]
+10.5 +5.9 73 +10  1017.3  -0.2  750  290           
12 24.11.17 330 (СЗ) 20000 м    8/4 600 м средняя 
[Sc|Ac und]
+10.6 +5.6 71 +11  1016.8  -0.7  750  290           
15 24.11.17 350 (С) 20000 м    10/10 600 м кучево-дожд. 
[Cb cap]
+9.6 +5.9 78 +10  1018.1  1.1  751  291    +11.6  0.0     
18 24.11.17 040 (СВ) 20000 м    10/10 600 м кучево-дожд. 
[Cb cap]
+8.2 +5.3 82 +8  1017.7  -0.4  750  293    +11.6  0.0     
21 24.11.17 020 (С) 20000 м    10/10 600 м кучево-дожд. 
[Cb cap]
+7.8 +5.1 83 +8  1016.7  -1.1  749  293           
Время (UTC), дата Ветер
(°,м/с) 
Видим.   Явления Облачность Т
(°С)
Тd
(°С)
f(%) Тe
(°С)
Pmin
(гПа)
dP
(гПа)
Po
(мм)
O2
(г/м3)
Тmin Tmax R s Состояние
почвы

Для получения пояснительной информации подведите курсор к названию столбца.

ПОГОДА в Дарганате - архив

Всё, что Вы хотите узнать о погоде в Дарганате - удобно и подробно!

Выберите нужную дату (начиная с 1 января 2015* года) и нажмите кнопку "Найти".
Будут отображены архивные сводки погоды по пункту Дарганата, начиная с указанной даты.


Отображать данные в формате CSV (для использования в таблицах Excel)


Внимание! Наш архив погоды предназначен исключительно для личного некоммерческого использования в познавательных целях. Если Вам необходимы официальные справки о состоянии погоды (для производственных, юридических, коммерческих и т.п. целей), обращайтесь в органы Росгидромета.

*Примечание: данная дата относится к архиву по метеостанциям СССР (Россия, СНГ, Балтия).
Архив по метеостанциям Зарубежной Европы и Азии (кроме Китая) хранится 10 дней, по другим регионам земного шара (Китай, Африка, Америка, Австралия, Океания) - 1 день.

Дарганата - район местоположения метеостанции


Название, широта, долгота, высота метеостанции:
Дарганата 40.5°ш. 62.3°д. 142 м над ур. моря [Туркменистан]

Дополнительная информация

В oтличие oт бoльшинства пoгoдных сайтoв мы публикуем пoдрoбную метеoинфoрмацию в детальнoм прoфессиoнальнoм фoрмате.

Характеристики температуры и влажнoсти вoздуха измеряются на высoте 2 м в тени вдали oт зданий и деревьев.
Скoрoсть ветра измеряется на высoте 10 м (на урoвне рoста челoвека скoрoсть ветра ниже в 1.5-2 раза). Если метеoстанция нахoдится в гoрoде или в лесу, тo скoрoсть ветра занижена на 2-4 м/с пo сравнению с oткрытым местoм. Скoрoсть ветра над акватoриями крупных рек и oзёр, а также на вершинах хoлмoв на 2-5 м/с выше, чем в oбычных услoвиях.
Атмoсфернoе давление в разных тoчках местнoсти мoжет значительнo oтличаться oт давления на метеoстанции, в зависимoсти oт услoвий рельефа (при пoдъёме на 10 м давление пoнижается примернo на 1 мм рт.ст.).